FW1194 Weather Reports


Display with metric or nautical units.
time (UTC)temp
F
wind
direction
speed
MPH
gust
MPH
rain 1hr
in
rain 24hr
in
rain mn
in
humidity
%
barometer
mb
20260508090216 38 0.0 0.0 0.00 0.05 0.00 88 1009.8
20260508085237 38 0.0 0.0 0.00 0.05 0.00 88 1009.9
20260508084216 39 0.0 0.0 0.00 0.05 0.00 88 1010.0
20260508083216 39 0.0 0.0 0.00 0.05 0.00 88 1010.1
20260508082216 39 0.0 0.0 0.00 0.05 0.00 88 1010.1
20260508081216 39 0.0 0.0 0.00 0.05 0.00 88 1010.2
20260508080216 40 0.0 0.0 0.00 0.05 0.00 88 1010.2
20260508075216 40 0.0 0.0 0.00 0.05 0.00 88 1010.3
20260508074216 40 0.0 0.0 0.00 0.05 0.00 88 1010.4
20260508073216 40 0.0 0.0 0.00 0.05 0.00 87 1010.5
20260508072217 40 338 1.0 3.0 0.00 0.05 0.00 87 1010.5
20260508071216 41 0.0 1.0 0.00 0.05 0.00 87 1010.6
20260508070216 41 0.0 1.0 0.00 0.05 0.00 86 1010.7
20260508065216 40 0.0 0.0 0.00 0.05 0.00 86 1010.7
20260508064216 40 315 2.0 2.0 0.00 0.05 0.00 85 1010.5
20260508063236 41 0.0 0.0 0.00 0.05 0.00 85 1010.5
20260508062216 41 0.0 0.0 0.00 0.05 0.00 85 1010.6
20260508061236 41 0.0 0.0 0.00 0.05 0.00 84 1010.6
20260508060216 42 0.0 0.0 0.00 0.05 0.00 84 1010.6
20260508055216 42 0.0 0.0 0.00 0.05 0.00 83 1010.4
20260508054216 42 0.0 0.0 0.00 0.05 0.00 83 1010.5
20260508053236 42 0.0 0.0 0.00 0.05 0.00 82 1010.4
20260508052216 42 0.0 0.0 0.00 0.05 0.00 82 1010.4
20260508051217 43 0.0 0.0 0.00 0.05 0.00 81 1010.2
20260508050216 43 189 1.0 0.0 0.00 0.05 0.00 80 1010.2
20260508045217 44 0.0 0.0 0.00 0.05 0.05 80 1010.2
20260508044216 44 0.0 1.0 0.00 0.05 0.05 79 1010.1
20260508043217 44 0.0 0.0 0.00 0.05 0.05 78 1010.0
20260508042217 45 0.0 0.0 0.00 0.05 0.05 78 1009.9
20260508041237 45 0.0 1.0 0.00 0.05 0.05 77 1009.9
20260508040217 45 0.0 0.0 0.00 0.05 0.05 76 1009.8
20260508035217 46 0.0 0.0 0.00 0.05 0.05 76 1009.8
20260508034217 46 293 2.0 3.0 0.00 0.05 0.05 74 1009.7
20260508033217 46 0.0 0.0 0.00 0.05 0.05 73 1009.6
20260508032217 47 158 1.0 2.0 0.00 0.05 0.05 72 1009.6
20260508031217 47 0.0 0.0 0.00 0.05 0.05 72 1009.6
20260508030217 47 68 1.0 2.0 0.00 0.05 0.05 71 1009.5
20260508025217 48 0.0 1.0 0.00 0.05 0.05 71 1009.5
20260508024216 48 68 1.0 2.0 0.00 0.05 0.05 69 1009.4
20260508023217 49 68 2.0 2.0 0.00 0.05 0.05 68 1009.2
20260508022216 49 0.0 1.0 0.00 0.05 0.05 68 1009.2
20260508021237 50 90 1.0 1.0 0.00 0.05 0.05 65 1009.0
20260508020217 51 0.0 2.0 0.00 0.05 0.05 64 1008.9
20260508015217 52 180 1.0 1.0 0.00 0.05 0.05 63 1008.9
20260508014216 53 0.0 0.0 0.00 0.05 0.05 60 1008.6
20260508013216 54 0.0 1.0 0.00 0.05 0.05 58 1008.5
20260508012217 55 0.0 0.0 0.00 0.05 0.05 57 1008.5
20260508011216 55 180 1.0 1.0 0.00 0.05 0.05 54 1008.3
20260508010237 56 0.0 0.0 0.00 0.05 0.05 52 1008.3
20260508005217 57 203 1.0 1.0 0.00 0.05 0.05 51 1008.2
20260508004217 57 225 2.0 3.0 0.00 0.05 0.05 50 1008.1
20260508003216 58 248 3.0 4.0 0.00 0.05 0.05 49 1008.1
20260508002217 58 270 4.0 7.0 0.00 0.05 0.05 48 1008.2
20260508001216 59 270 6.0 10.0 0.00 0.05 0.05 47 1008.0
20260508000216 59 270 8.0 11.0 0.00 0.05 0.05 47 1007.9
20260507235216 59 225 8.0 11.0 0.00 0.05 0.05 47 1007.9
20260507234216 60 225 8.0 11.0 0.00 0.05 0.05 47 1008.0
20260507233216 60 225 4.0 6.0 0.00 0.05 0.05 48 1008.0
20260507232216 60 270 7.0 9.0 0.00 0.05 0.05 47 1008.0
20260507231216 59 225 6.0 10.0 0.00 0.05 0.05 47 1008.0
20260507230216 59 248 7.0 10.0 0.00 0.05 0.05 50 1008.1
20260507225216 59 203 8.0 10.0 0.00 0.05 0.05 58 1008.3
20260507224217 58 248 8.0 12.0 0.00 0.05 0.05 60 1008.4
20260507223217 56 203 5.0 8.0 0.01 0.05 0.05 67 1008.4
20260507222216 56 225 8.0 12.0 0.01 0.05 0.05 65 1008.7
20260507221216 55 203 4.0 5.0 0.01 0.05 0.05 69 1008.5
20260507220216 53 225 3.0 4.0 0.03 0.05 0.05 73 1008.6
20260507215216 51 135 3.0 5.0 0.05 0.05 0.05 72 1008.6
20260507214216 51 270 9.0 15.0 0.05 0.05 0.05 75 1009.3
20260507213216 50 270 3.0 5.0 0.04 0.04 0.04 76 1009.0
20260507212216 50 293 5.0 11.0 0.04 0.04 0.04 74 1009.0
20260507211216 50 315 3.0 5.0 0.04 0.04 0.04 71 1008.8
20260507210216 52 293 4.0 8.0 0.02 0.02 0.02 66 1008.8
20260507205216 57 270 15.0 22.0 0.00 0.00 0.00 51 1008.9
20260507204216 59 0 17.0 20.0 0.00 0.00 0.00 48 1008.2
20260507203216 59 0 9.0 13.0 0.00 0.00 0.00 50 1008.3
20260507202216 59 0 10.0 14.0 0.00 0.00 0.00 45 1008.3
20260507201216 61 248 12.0 16.0 0.00 0.00 0.00 43 1008.6
20260507200216 61 0 14.0 19.0 0.00 0.00 0.00 45 1008.8
20260507195216 61 0 13.0 18.0 0.00 0.00 0.00 48 1009.0
20260507194216 61 248 16.0 23.0 0.00 0.00 0.00 45 1009.2
20260507193216 61 0 14.0 19.0 0.00 0.00 0.00 45 1009.4
20260507192216 61 0 14.0 21.0 0.00 0.00 0.00 47 1009.7
20260507191237 60 0 15.0 22.0 0.00 0.00 0.00 47 1010.0
20260507190216 59 203 17.0 22.0 0.00 0.00 0.00 46 1010.1
20260507185216 60 0 13.0 20.0 0.00 0.00 0.00 43 1010.0
20260507184216 60 0 16.0 26.0 0.00 0.00 0.00 43 1010.1
20260507183216 59 225 18.0 26.0 0.00 0.00 0.00 40 1010.2
20260507182216 59 0 11.0 17.0 0.00 0.00 0.00 41 1010.1
20260507181215 58 0 8.0 12.0 0.00 0.00 0.00 41 1010.5
20260507180216 59 0 11.0 20.0 0.00 0.00 0.00 37 1010.6
20260507175216 59 0 12.0 16.0 0.00 0.00 0.00 39 1010.8
20260507174216 59 0 11.0 17.0 0.00 0.00 0.00 38 1011.1
20260507173216 59 0 10.0 14.0 0.00 0.00 0.00 38 1011.3
20260507172216 59 0 15.0 23.0 0.00 0.00 0.00 39 1011.4
20260507171216 58 0 8.0 13.0 0.00 0.00 0.00 38 1011.7
20260507170216 59 0 11.0 22.0 0.00 0.00 0.00 39 1012.0
20260507165216 58 180 10.0 16.0 0.00 0.00 0.00 39 1012.0
20260507164238 57 0 9.0 14.0 0.00 0.00 0.00 37 1012.1
20260507163238 57 225 8.0 17.0 0.00 0.00 0.00 37 1012.3
20260507162219 57 225 5.0 8.0 0.00 0.00 0.00 40 1012.5
20260507161238 56 203 7.0 9.0 0.00 0.00 0.00 40 1012.7
20260507160217 55 225 4.0 6.0 0.00 0.00 0.00 41 1012.8
20260507155238 54 203 6.0 9.0 0.00 0.00 0.00 41 1012.9
20260507154238 55 158 5.0 10.0 0.00 0.00 0.00 39 1013.2
20260507153217 55 180 2.0 5.0 0.00 0.00 0.00 40 1013.1
20260507152218 54 0 7.0 10.0 0.00 0.00 0.00 39 1013.4
20260507151218 53 248 3.0 4.0 0.00 0.00 0.00 43 1013.5
20260507150218 53 293 4.0 6.0 0.00 0.00 0.00 42 1013.8
20260507145217 52 225 4.0 6.0 0.00 0.00 0.00 44 1013.8
20260507144217 51 0 9.0 11.0 0.00 0.00 0.00 45 1014.0
20260507143258 51 248 6.0 9.0 0.00 0.00 0.00 47 1014.2
20260507142217 51 225 7.0 11.0 0.00 0.00 0.00 48 1014.3
20260507141217 49 203 4.0 5.0 0.00 0.00 0.00 52 1014.3
20260507140217 48 203 5.0 9.0 0.00 0.00 0.00 54 1014.4
20260507135218 46 203 4.0 6.0 0.00 0.00 0.00 57 1014.3
20260507134217 45 225 3.0 4.0 0.00 0.00 0.00 60 1014.2
20260507133218 44 225 4.0 6.0 0.00 0.00 0.00 64 1014.5
20260507132218 43 203 2.0 2.0 0.00 0.00 0.00 66 1014.7
20260507131217 43 225 2.0 3.0 0.00 0.00 0.00 68 1014.7
20260507130217 42 203 3.0 4.0 0.00 0.00 0.00 68 1014.7
20260507125217 42 248 3.0 6.0 0.00 0.00 0.00 68 1014.6
20260507124217 41 225 2.0 3.0 0.00 0.00 0.00 71 1014.6
20260507123217 40 203 3.0 4.0 0.00 0.00 0.00 76 1014.5
20260507122218 38 225 2.0 3.0 0.00 0.00 0.00 79 1014.3
20260507121217 37 270 1.0 3.0 0.00 0.00 0.00 81 1014.2
20260507120217 36 248 2.0 3.0 0.00 0.00 0.00 82 1014.2
20260507115237 34 248 1.0 2.0 0.00 0.00 0.00 82 1014.1
20260507114217 33 0.0 0.0 0.00 0.00 0.00 82 1014.1
20260507113217 33 0.0 1.0 0.00 0.00 0.00 82 1014.0
20260507112217 32 225 1.0 2.0 0.00 0.00 0.00 81 1013.8
20260507111217 32 225 1.0 2.0 0.00 0.00 0.00 81 1013.9
20260507110217 32 225 1.0 1.0 0.00 0.00 0.00 81 1013.8
20260507105258 32 225 1.0 2.0 0.00 0.00 0.00 80 1013.8
20260507104217 32 225 1.0 2.0 0.00 0.00 0.00 80 1013.8
20260507103217 32 225 1.0 2.0 0.00 0.00 0.00 80 1013.8
20260507102217 32 225 1.0 2.0 0.00 0.00 0.00 79 1013.8
20260507101217 32 225 1.0 2.0 0.00 0.00 0.00 79 1013.9
20260507100217 32 0.0 1.0 0.00 0.00 0.00 79 1013.8
20260507095217 32 225 1.0 1.0 0.00 0.00 0.00 78 1014.0
20260507094217 32 225 1.0 1.0 0.00 0.00 0.00 78 1014.0
20260507093237 32 203 1.0 2.0 0.00 0.00 0.00 76 1013.9
20260507092218 32 203 1.0 2.0 0.00 0.00 0.00 75 1013.9
20260507091237 32 0.0 1.0 0.00 0.00 0.00 74 1013.9